TimeEST,TemperatureF,Dew PointF,Humidity,Sea Level PressureIn,VisibilityMPH,Wind Direction,Wind SpeedMPH,Gust SpeedMPH,PrecipitationIn,Events,Conditions,WindDirDegrees,DateUTC
12:53 AM,16.0,-2.0,45,30.39,10.0,West,5.8,16.1,N/A,,Overcast,260,2013-01-23 05:53:00
2:53 AM,16.0,-0.9,47,30.40,10.0,West,5.8,-,N/A,,Overcast,270,2013-01-23 07:53:00
3:53 AM,15.1,-0.0,51,30.39,10.0,West,4.6,-,N/A,,Overcast,260,2013-01-23 08:53:00
4:53 AM,10.9,-0.0,61,30.38,10.0,West,3.5,-,N/A,,Clear,260,2013-01-23 09:53:00
5:53 AM,12.0,-0.0,59,30.38,10.0,West,3.5,-,N/A,,Clear,270,2013-01-23 10:53:00
6:53 AM,15.1,1.9,56,30.39,10.0,WSW,5.8,-,N/A,,Overcast,250,2013-01-23 11:53:00
7:53 AM,15.1,1.9,56,30.39,10.0,WSW,4.6,-,N/A,,Overcast,250,2013-01-23 12:53:00
8:53 AM,16.0,-0.0,49,30.39,10.0,West,5.8,-,N/A,,Overcast,260,2013-01-23 13:53:00
9:53 AM,18.0,1.0,48,30.39,10.0,WSW,8.1,-,N/A,,Overcast,250,2013-01-23 14:53:00
10:53 AM,19.0,1.0,46,30.37,10.0,SW,5.8,-,N/A,,Overcast,220,2013-01-23 15:53:00
11:53 AM,19.9,1.9,46,30.35,10.0,WSW,4.6,-,N/A,,Overcast,240,2013-01-23 16:53:00
12:53 PM,21.0,1.9,44,30.31,9.0,WSW,9.2,-,0.00,Snow,Light Snow,240,2013-01-23 17:53:00
1:53 PM,21.0,1.9,44,30.28,10.0,SW,8.1,-,0.00,,Overcast,220,2013-01-23 18:53:00
2:53 PM,21.9,5.0,48,30.25,10.0,SW,8.1,-,N/A,,Overcast,220,2013-01-23 19:53:00
3:53 PM,23.0,5.0,46,30.22,10.0,SW,4.6,-,N/A,,Overcast,220,2013-01-23 20:53:00
4:53 PM,23.0,3.0,42,30.21,10.0,Calm,Calm,-,N/A,,Overcast,0,2013-01-23 21:53:00
5:53 PM,23.0,3.9,44,30.19,10.0,Calm,Calm,-,N/A,,Overcast,0,2013-01-23 22:53:00
6:53 PM,23.0,5.0,46,30.18,10.0,Calm,Calm,-,N/A,,Overcast,0,2013-01-23 23:53:00
7:53 PM,23.0,5.0,46,30.17,10.0,Calm,Calm,-,N/A,,Overcast,0,2013-01-24 00:53:00
8:53 PM,23.0,9.0,55,30.17,10.0,Calm,Calm,-,N/A,,Overcast,0,2013-01-24 01:53:00
9:53 PM,21.0,9.0,60,30.16,10.0,Calm,Calm,-,N/A,,Overcast,0,2013-01-24 02:53:00
10:53 PM,19.9,12.0,71,30.15,10.0,Calm,Calm,-,N/A,,Overcast,0,2013-01-24 03:53:00
11:53 PM,19.9,10.9,68,30.14,10.0,Calm,Calm,-,N/A,,Mostly Cloudy,0,2013-01-24 04:53:00